EW5518 Weather Reports


Display with metric or nautical units.
time (UTC)temp
F
wind
direction
speed
MPH
gust
MPH
rain 1hr
in
rain 24hr
in
rain mn
in
humidity
%
barometer
mb
20210308090203 46 275 1.0 8.0 0.00 0.00 0.00 60 1014.8
20210308084527 46 28 4.0 9.0 0.00 0.00 0.00 61 1014.8
20210308083544 46 42 4.0 9.0 0.00 0.00 0.00 61 1014.8
20210308081551 46 30 4.0 9.0 0.00 0.00 0.00 68 1015.0
20210308080049 46 223 2.0 6.0 0.00 0.00 0.00 65 1015.1
20210308074559 45 341 1.0 8.0 0.00 0.00 0.00 63 1015.1
20210308073041 45 20 3.0 6.0 0.00 0.00 0.00 61 1015.0
20210308071549 45 15 1.0 8.0 0.00 0.00 0.00 60 1015.2
20210308070039 45 180 3.0 5.0 0.00 0.00 0.00 61 1015.2
20210308064526 45 189 1.0 3.0 0.00 0.00 0.00 64 1015.1
20210308063011 44 19 2.0 4.0 0.00 0.00 0.00 65 1015.0
20210308061928 44 113 1.0 4.0 0.00 0.00 0.00 68 1014.9
20210308060229 43 132 2.0 5.0 0.00 0.00 0.00 69 1014.9
20210308054640 42 132 2.0 4.0 0.00 0.00 0.00 71 1014.9
20210308053409 41 150 1.0 3.0 0.00 0.00 0.00 74 1014.8
20210308052230 40 108 1.0 6.0 0.00 0.00 0.00 75 1014.8
20210308050222 39 136 2.0 3.0 0.00 0.00 0.00 75 1014.7
20210308044558 38 136 4.0 7.0 0.00 0.00 0.00 77 1014.6
20210308043226 37 130 4.0 8.0 0.00 0.00 0.00 77 1014.4
20210308041653 37 144 2.0 5.0 0.00 0.00 0.00 77 1014.2
20210308040136 37 127 5.0 8.0 0.00 0.00 0.00 74 1014.0
20210308034538 39 187 2.0 4.0 0.00 0.00 0.00 74 1014.0
20210308033114 40 192 6.0 8.0 0.00 0.00 0.00 76 1013.9
20210308031559 38 159 1.0 5.0 0.00 0.00 0.00 79 1013.7
20210308030120 39 163 4.0 7.0 0.00 0.00 0.00 79 1013.7
20210308024602 39 147 2.0 7.0 0.00 0.00 0.00 79 1013.5
20210308023145 40 172 2.0 3.0 0.00 0.00 0.00 75 1013.5
20210308021552 41 193 4.0 8.0 0.00 0.00 0.00 76 1013.3
20210308020121 41 184 2.0 3.0 0.00 0.00 0.00 77 1013.2
20210308014609 41 184 2.0 4.0 0.00 0.00 0.00 77 1013.1
20210308013150 41 185 3.0 6.0 0.00 0.00 0.00 77 1013.2
20210308011542 40 191 3.0 7.0 0.00 0.00 0.00 78 1013.3
20210308010301 40 142 3.0 5.0 0.00 0.00 0.00 77 1013.3
20210308004844 41 142 3.0 5.0 0.00 0.00 0.00 76 1013.4
20210308003233 41 142 3.0 7.0 0.00 0.00 0.00 73 1013.6
20210308001529 40 134 2.0 4.0 0.00 0.00 0.00 67 1013.7
20210308000653 41 175 3.0 6.0 0.00 0.00 0.00 61 1013.9
20210307234543 40 163 5.0 8.0 0.00 0.00 0.00 56 1014.0
20210307233307 40 168 6.0 10.0 0.00 0.00 0.00 51 1014.3
20210307231520 40 199 4.0 8.0 0.00 0.00 0.00 47 1014.4
20210307230133 38 146 11.0 13.0 0.00 0.00 0.00 52 1014.3
20210307225109 37 137 8.0 12.0 0.00 0.00 0.00 46 1014.6
20210307223317 36 148 3.0 8.0 0.00 0.00 0.00 48 1014.6
20210307221629 37 150 3.0 8.0 0.00 0.00 0.00 45 1014.6
20210307220224 37 165 2.0 7.0 0.00 0.00 0.00 45 1014.4
20210307214610 38 134 4.0 7.0 0.00 0.00 0.00 40 1014.5
20210307213524 39 173 2.0 5.0 0.00 0.00 0.00 40 1014.4
20210307211616 40 135 3.0 5.0 0.00 0.00 0.00 38 1014.5
20210307210113 40 250 1.0 5.0 0.00 0.00 0.00 33 1014.2
20210307204608 40 175 2.0 10.0 0.00 0.00 0.00 35 1014.1
20210307203057 40 158 2.0 9.0 0.00 0.00 0.00 36 1014.3
20210307201531 39 140 6.0 10.0 0.00 0.00 0.00 36 1014.4
20210307200208 40 131 5.0 9.0 0.00 0.00 0.00 34 1014.4
20210307194532 40 132 3.0 5.0 0.00 0.00 0.00 34 1014.3
20210307193023 41 175 5.0 9.0 0.00 0.00 0.00 32 1014.1
20210307191516 41 188 5.0 9.0 0.00 0.00 0.00 31 1014.1
20210307190205 41 157 5.0 10.0 0.00 0.00 0.00 32 1014.1
20210307184637 42 188 3.0 5.0 0.00 0.00 0.00 32 1014.0
20210307183221 42 186 2.0 8.0 0.00 0.00 0.00 32 1014.0
20210307181616 42 157 3.0 8.0 0.00 0.00 0.00 36 1013.9
20210307180124 39 123 0.0 0.0 0.00 0.00 0.00 48 1013.7
20210307174554 39 123 0.0 0.0 0.00 0.00 0.00 73 1013.9
20210307173417 41 123 0.0 2.0 0.00 0.00 0.00 58 1013.9
20210307171643 42 123 0.0 4.0 0.00 0.00 0.00 41 1013.9
20210307170239 42 128 1.0 4.0 0.00 0.00 0.00 40 1013.7
20210307164525 41 145 0.0 0.0 0.00 0.00 0.00 45 1013.7
20210307163109 44 186 0.0 0.0 0.00 0.00 0.00 38 1013.8
20210307161527 44 154 2.0 9.0 0.00 0.00 0.00 28 1013.6
20210307160112 44 183 4.0 10.0 0.00 0.00 0.00 39 1013.4
20210307154735 41 137 3.0 7.0 0.00 0.00 0.00 83 1013.3
20210307153332 42 137 1.0 3.0 0.00 0.00 0.00 92 1013.2
20210307151649 43 137 2.0 5.0 0.00 0.00 0.00 93 1013.2
20210307150201 43 163 2.0 5.0 0.00 0.00 0.00 93 1013.5
20210307144610 44 59 0.0 4.0 0.00 0.00 0.00 93 1013.5
20210307143055 44 24 0.0 3.0 0.00 0.00 0.00 93 1013.5
20210307141701 44 24 1.0 3.0 0.00 0.00 0.00 92 1013.4
20210307140156 44 24 1.0 3.0 0.00 0.00 0.00 92 1013.3
20210307134544 45 24 1.0 3.0 0.00 0.00 0.00 90 1013.2
20210307133153 46 24 0.0 0.0 0.00 0.00 0.00 88 1013.2
20210307131539 47 24 1.0 3.0 0.00 0.00 0.00 86 1013.3
20210307130212 48 24 1.0 3.0 0.00 0.00 0.00 85 1013.3
20210307124520 48 24 1.0 3.0 0.00 0.00 0.00 87 1013.6
20210307123052 47 24 1.0 3.0 0.00 0.00 0.00 86 1013.8
20210307121900 48 324 2.0 6.0 0.00 0.00 0.00 85 1014.0
20210307120136 49 14 2.0 8.0 0.00 0.00 0.00 82 1014.1
20210307114616 50 350 3.0 6.0 0.00 0.00 0.00 77 1014.2
20210307113230 50 5 2.0 8.0 0.00 0.00 0.00 74 1014.3
20210307111855 51 298 4.0 8.0 0.00 0.00 0.00 66 1014.7
20210307110429 52 336 1.0 6.0 0.00 0.00 0.00 59 1014.9
20210307104636 52 331 3.0 7.0 0.00 0.00 0.00 46 1015.1
20210307103111 52 355 4.0 9.0 0.00 0.00 0.00 55 1015.3
20210307101556 51 329 2.0 5.0 0.00 0.00 0.00 53 1015.5
20210307100252 51 342 3.0 8.0 0.00 0.00 0.00 57 1015.6
20210307094618 52 29 4.0 9.0 0.00 0.00 0.00 35 1015.9
20210307093047 53 332 1.0 4.0 0.00 0.00 0.00 38 1016.1
20210307091546 53 345 1.0 5.0 0.00 0.00 0.00 36 1016.3